Regional Weather Roundup
Issued by NWS

Home | Current Version | Previous Version | Text Only | Print | Product List | Glossary On
Versions: 1 2 3 4 5 6 7 8 9 10 11 12 13 14 15 16 17 18 19 20 21 22 23 24 25 26 27 28 29 30 31 32 33 34 35 36 37 38 39 40 41 42 43 44 45 46 47 48 49 50
000
ASCA42 TJSJ 020510
RWRPR
PUERTO RICO/U.S. VIRGIN ISLANDS HOURLY WEATHER ROUNDUP
NATIONAL WEATHER SERVICE SAN JUAN PR
100 AM AST TUE JUN 02 2015

PRZ001-004-020600-
PUERTO RICO

CITY           SKY/WX    TMP DP  RH WIND       PRES   REMARKS
SAN JUAN LMM   PTCLDY    79  75  89 SE6       30.01F
PONCE          MOCLDY    79  72  78 NE6       29.98
CEIBA          PTCLDY    81  73  78 E7        30.04F
$$

PRZ006-007-020600-
U.S. VIRGIN ISLANDS

CITY           SKY/WX    TMP DP  RH WIND       PRES   REMARKS
CHARLOTTE AMA  PTCLDY    81  75  83 E13       30.01F
CHRISTIANSTED  MOCLDY    81  73  78 E14       30.02F
$$

HOURLY WEATHER ROUNDUP FOR THE NEWS MEDIA

CITY           SKY/WX    TMP DP  RH WIND       PRES   REMARKS
ORLANDO        MOCLDY    74  71  91 S9        30.03F
NEW YORK       LGT RAIN  52  48  86 NE9       30.15S
NEWARK         LGT RAIN  52  51  93 NE14      30.14F
CHICAGO        CLEAR     47  36  65 NE5       30.20F
HARTFORD       LGT RAIN  49  47  93 NE9       30.15F
BOSTON         CLOUDY    47  46  97 NE15      30.22F FOG
DALLAS         CLEAR     75  62  64 SE6       30.04S
PHILADELPHIA   LGT RAIN  58  54  86 NE12      30.08F
LOS ANGELES    PTCLDY    61  56  83 W8        30.00R
WASHINGTON DC  RAIN      70  66  88 SE3       30.03S FOG


USA.gov is the U.S. government's official web portal to all federal, state and local government web resources and services.